Back to catalog

FENGYUN 1C DEB

AliveSSO
NORAD 30760·DEBRIS·🇨🇳 China

Launched May 10, 1999 from Taiyuan Satellite Launch Center

Loading…

Next Passes (next 24 hours)

TLE

FreshSource: Space-Track

Epoch: Sep 14, 2026, 04:54 UTC

1 30760U 99025ATW 26257.20443358  .00000392  00000-0  26572-3 0  9991
2 30760  98.8374 251.6808 0051885 291.2414  68.3217 14.05364383   898

Track FENGYUN 1C DEB in real time with AllMySat

Download on the App Store